User: anonymous   Login
Location: Unspecified
(0.0000°N, 0.0000°E)
Time: 08:23:24
(UTC+00:00)
Language:

ORS OBJECT Z - Orbit

View from above orbital plane
View from above orbital plane
View from above satellite
View from above satellite

Ground track
Ground track

The orbit data is extracted from the following two-line orbital elements,

1 39403U 13064Z   21237.42839327  .03236251  72087-5  59674-3 0  9991
2 39403  40.4990 292.7885 0004167  65.7366 294.3916 16.31224824436852
Epoch (UTC): 25 August 2021 10:16:53
Eccentricity: 0.0004167
inclination: 40.4990°
perigee height: 186 km
apogee height: 192 km
right ascension of ascending node: 292.7885°
argument of perigee: 65.7366°
revolutions per day: 16.31224824
mean anomaly at epoch: 294.3916°
orbit number at epoch: 43685

The dashed part of the orbit path shows where the satellite is in the earth's shadow,  

DLR